STARLINK-32113, 60282

Orbit data source: Space-Track

STARLINK-32113, 60282 is a payload satellite owned by SpaceX/Seattle (US) in LEO that was launched on Sun, 28 Jul 2024 UTC via an FALCON 9 launch vehicle from the Air Force Eastern Test Range (AFETR). Payload-class satellites include a variety of spacecraft equipped with specific instruments for various scientific and technological missions. These include communications satellites like Starlink; space stations such as the ISS; scientific satellites like the Hubble; Earth observation satellites from companies like Planet Labs, Umbra, and HawkEye 360; GPS; miniature CubeSats for education and research; and military/defense satellites.

Loading next visibility...
Identifier
60282, 2024-132E
Orbit
LEO
Country
Flag of USUS
Related business
Manufacturer
SpaceX/Seattle
Mission
Operational Commercial Communications
Bus & Motor
STARLINK V2M, Unknown motor
Mass
730 kg wet, ~700 kg dry
Launch date (UTC)
2024-07-28 (2 years ago)
Launch vehicle
FALCON 9
Launch site
Air Force Eastern Test Range (AFETR)
Object type
Payload
Rocket body
Debris
Shape & HBR
Box + 2 Pan, 17.7 m
Radar Cross Section
33.884 m², Large (>1 m²)

Expand to show TLE details & history
Last TLE update: 16 hours ago

TLE from 16 hours ago
0 STARLINK-32113
1 60282U 24132E   26254.75641476  .00000188  00000-0  16701-4 0  9995
2 60282  53.1613 266.3595 0001287  69.7919 290.3222 15.34385040120077
Epoch: 2026-09-11T18:09Z
TLE epoch observation values (Epoch: 2026-09-11T18:09:14.235Z)
Latitude
-0°
Longitude
3.27498°
Altitude
463.344 km
Speed
7.636 km/s
True Right ascension
17h 45m 26s
True Declination
0° 00' 00"
Sunlit
Object was in daylight at epoch
Visualization orbit readout
Latitude
Unknown
Longitude
Unknown
Altitude
Unknown
Speed
Unknown
Apparent Right ascension
Unknown
Apparent Declination
Unknown
Sunlit
N/A
Visualization observer readout
Local Sidereal Time
02:10:05
Azimuth
Unknown
Elevation
Unknown
Doppler factor
Unknown
Orbital elements
Apogee altitude
463.885 km
Perigee altitude
462.124 km
Semi-major axis
6,841.141 km
Eccentricity
0.00013
Inclination
53.1613°
RAAN
266.3595°
Arg. of periapsis
69.7919°
True anomaly
290.30837°
Mean anomaly
290.3222°
Eccentric anomaly
290.31528°
Mean motion
3.83575 °/min
Orbital period
93.85 mins
BSTAR
0.000016701
Loading maneuver chart data...
Computing Atmospheric mass density...
Loading historical data...
Loading historical data...
Loading historical data...
Loading historical data...
Loading historical data...
Loading historical data...
Loading historical data...

Documentation

Showing up to 5 results
|